When you browse on this site, cookies collect data to enhance your experience and personalize the content and advertising you see.
Visit our Privacy Policy to learn more. By continuing to use the site, you agree to this use of cookies and data.
EN

Hourly Weather Viktorynivka

Today, 5 August, Wednesday

Time Temperature Precipitation Wind Pressure Humidity
00:00 +18°C° 0 mm 3 mps 749 mmHg 70%
01:00 +17°C° 0 mm 3 mps 749 mmHg 71%
02:00 +17°C° 0 mm 3 mps 749 mmHg 71%
03:00 +17°C° 0 mm 3 mps 749 mmHg 73%
04:00 +16°C° 0 mm 3 mps 749 mmHg 76%
05:00 +16°C° 0 mm 2 mps 749 mmHg 78%
06:00 +18°C° 0 mm 2 mps 750 mmHg 74%
07:00 +20°C° 0 mm 2 mps 750 mmHg 69%
08:00 +22°C° 0 mm 3 mps 750 mmHg 65%
09:00 +24°C° 0 mm 2 mps 750 mmHg 60%
10:00 +26°C° 0 mm 2 mps 750 mmHg 55%
11:00 +27°C° 0 mm 2 mps 750 mmHg 49%
12:00 +28°C° 0 mm 2 mps 750 mmHg 48%
13:00 +28°C° 0 mm 2 mps 750 mmHg 46%
14:00 +29°C° 0 mm 2 mps 750 mmHg 44%
15:00 +28°C° 0 mm 2 mps 750 mmHg 47%
16:00 +28°C° 0 mm 2 mps 750 mmHg 49%
17:00 +28°C° 0 mm 2 mps 750 mmHg 51%
18:00 +26°C° 0 mm 2 mps 750 mmHg 56%
19:00 +24°C° 0 mm 2 mps 750 mmHg 60%
20:00 +21°C° 0 mm 2 mps 750 mmHg 65%
21:00 +20°C° 0 mm 2 mps 751 mmHg 67%
22:00 +19°C° 0 mm 2 mps 751 mmHg 69%
23:00 +19°C° 0 mm 2 mps 751 mmHg 71%

Tomorrow, 6 August, Thursday

Time Temperature Precipitation Wind Pressure Humidity
00:00 +19°C° 0 mm 1 mps 751 mmHg 73%
01:00 +19°C° 0 mm 1 mps 751 mmHg 76%
02:00 +18°C° 0 mm 1 mps 751 mmHg 78%
03:00 +18°C° 0 mm 1 mps 752 mmHg 79%
04:00 +18°C° 0 mm 1 mps 752 mmHg 80%
05:00 +18°C° 0 mm 1 mps 752 mmHg 81%
06:00 +20°C° 0 mm 1 mps 752 mmHg 75%
07:00 +21°C° 0 mm 2 mps 752 mmHg 70%
08:00 +24°C° 0 mm 2 mps 752 mmHg 64%
09:00 +25°C° 0 mm 2 mps 752 mmHg 60%
10:00 +26°C° 0 mm 2 mps 752 mmHg 55%
11:00 +28°C° 0 mm 3 mps 753 mmHg 51%
12:00 +28°C° 0 mm 3 mps 753 mmHg 49%
13:00 +29°C° 0 mm 3 mps 752 mmHg 47%
14:00 +29°C° 0 mm 3 mps 752 mmHg 45%
15:00 +29°C° 0 mm 3 mps 752 mmHg 49%
16:00 +29°C° 0 mm 2 mps 752 mmHg 52%
17:00 +28°C° 0 mm 2 mps 752 mmHg 55%
18:00 +26°C° 0 mm 2 mps 752 mmHg 59%
19:00 +24°C° 0 mm 2 mps 752 mmHg 63%
20:00 +23°C° 0 mm 1 mps 752 mmHg 67%
21:00 +22°C° 0 mm 1 mps 752 mmHg 69%
22:00 +21°C° 0 mm 1 mps 752 mmHg 72%
23:00 +21°C° 0 mm 1 mps 752 mmHg 75%

Day after tomorrow, 7 August, Friday

Time Temperature Precipitation Wind Pressure Humidity
00:00 +20°C° 0 mm 1 mps 752 mmHg 77%
01:00 +20°C° 0 mm 1 mps 753 mmHg 79%
02:00 +20°C° 0 mm 1 mps 753 mmHg 82%
03:00 +19°C° 0 mm 2 mps 753 mmHg 85%
04:00 +18°C° 0 mm 2 mps 753 mmHg 89%
05:00 +18°C° 0 mm 2 mps 753 mmHg 93%
06:00 +20°C° 0 mm 3 mps 753 mmHg 88%
07:00 +21°C° 0 mm 4 mps 753 mmHg 83%
08:00 +23°C° 0 mm 4 mps 753 mmHg 79%
09:00 +25°C° 0 mm 5 mps 753 mmHg 71%
10:00 +26°C° 0 mm 5 mps 753 mmHg 64%
11:00 +27°C° 0 mm 6 mps 753 mmHg 57%
12:00 +27°C° 0 mm 6 mps 753 mmHg 55%
13:00 +27°C° 0 mm 6 mps 753 mmHg 53%
14:00 +28°C° 0 mm 5 mps 753 mmHg 51%
15:00 +27°C° 0 mm 5 mps 753 mmHg 53%
16:00 +27°C° 0 mm 5 mps 753 mmHg 56%
17:00 +26°C° 0 mm 5 mps 753 mmHg 58%
18:00 +23°C° 0 mm 4 mps 753 mmHg 63%
19:00 +22°C° 0 mm 4 mps 753 mmHg 68%
20:00 +20°C° 0 mm 3 mps 753 mmHg 73%
21:00 +19°C° 0 mm 3 mps 753 mmHg 75%
22:00 +18°C° 0 mm 3 mps 753 mmHg 78%
23:00 +18°C° 0 mm 3 mps 753 mmHg 80%

8 August, Saturday

Time Temperature Precipitation Wind Pressure Humidity
00:00 +17°C° 0 mm 3 mps 753 mmHg 82%
01:00 +17°C° 0 mm 3 mps 752 mmHg 85%
02:00 +16°C° 0 mm 3 mps 752 mmHg 87%
03:00 +16°C° 0 mm 3 mps 752 mmHg 87%
04:00 +16°C° 0 mm 3 mps 752 mmHg 88%
05:00 +14°C° 0 mm 3 mps 752 mmHg 88%
06:00 +17°C° 0 mm 3 mps 752 mmHg 81%
07:00 +19°C° 0 mm 4 mps 752 mmHg 75%
08:00 +21°C° 0 mm 4 mps 752 mmHg 68%
09:00 +22°C° 0 mm 5 mps 752 mmHg 63%
10:00 +23°C° 0 mm 5 mps 752 mmHg 59%
11:00 +25°C° 0 mm 5 mps 752 mmHg 54%
12:00 +25°C° 0 mm 5 mps 751 mmHg 53%
13:00 +26°C° 0 mm 5 mps 751 mmHg 51%
14:00 +26°C° 0 mm 5 mps 750 mmHg 50%
15:00 +25°C° 0 mm 5 mps 750 mmHg 53%
16:00 +25°C° 0 mm 4 mps 750 mmHg 56%
17:00 +23°C° 0 mm 4 mps 750 mmHg 59%
18:00 +22°C° 0 mm 4 mps 750 mmHg 66%
19:00 +20°C° 0 mm 3 mps 750 mmHg 72%
20:00 +18°C° 0 mm 3 mps 750 mmHg 78%
21:00 +17°C° 0 mm 3 mps 749 mmHg 79%
22:00 +17°C° 0 mm 3 mps 749 mmHg 80%
23:00 +16°C° 0 mm 3 mps 749 mmHg 82%

9 August, Sunday

Time Temperature Precipitation Wind Pressure Humidity
00:00 +16°C° 0 mm 3 mps 749 mmHg 84%
01:00 +14°C° 0 mm 3 mps 749 mmHg 86%
02:00 +14°C° 0 mm 3 mps 749 mmHg 88%
03:00 +13°C° 0 mm 3 mps 749 mmHg 88%
04:00 +13°C° 0 mm 3 mps 749 mmHg 89%
05:00 +13°C° 0 mm 3 mps 748 mmHg 90%
06:00 +16°C° 0 mm 3 mps 749 mmHg 83%
07:00 +18°C° 0 mm 3 mps 749 mmHg 76%
08:00 +20°C° 0 mm 3 mps 749 mmHg 68%
09:00 +21°C° 0 mm 3 mps 749 mmHg 62%
10:00 +24°C° 0 mm 3 mps 748 mmHg 56%
11:00 +25°C° 0 mm 3 mps 748 mmHg 50%
12:00 +25°C° 0 mm 3 mps 748 mmHg 47%
13:00 +26°C° 0 mm 3 mps 748 mmHg 44%
14:00 +26°C° 0 mm 3 mps 747 mmHg 41%
15:00 +26°C° 0 mm 3 mps 747 mmHg 44%
16:00 +26°C° 0 mm 3 mps 747 mmHg 47%
17:00 +25°C° 0 mm 3 mps 747 mmHg 50%
18:00 +23°C° 0 mm 2 mps 747 mmHg 56%
19:00 +20°C° 0 mm 2 mps 747 mmHg 62%
20:00 +18°C° 0 mm 2 mps 747 mmHg 68%
21:00 +18°C° 0 mm 2 mps 747 mmHg 69%
22:00 +19°C° 0 mm 1 mps 747 mmHg 69%
23:00 +18°C° 0 mm 1 mps 747 mmHg 70%

10 August, Monday

Time Temperature Precipitation Wind Pressure Humidity
00:00 +18°C° 0 mm 1 mps 747 mmHg 72%
01:00 +18°C° 0 mm 1 mps 747 mmHg 73%
02:00 +16°C° 0 mm 1 mps 747 mmHg 75%
03:00 +16°C° 0 mm 1 mps 747 mmHg 77%
04:00 +16°C° 0 mm 1 mps 747 mmHg 79%
05:00 +15°C° 0 mm 1 mps 747 mmHg 82%
06:00 +18°C° 0 mm 1 mps 747 mmHg 77%
07:00 +19°C° 0 mm 2 mps 747 mmHg 72%
08:00 +20°C° 0 mm 2 mps 747 mmHg 67%
09:00 +23°C° 0 mm 2 mps 747 mmHg 62%
10:00 +24°C° 0 mm 2 mps 747 mmHg 57%
11:00 +25°C° 0 mm 3 mps 747 mmHg 53%
12:00 +26°C° 0 mm 3 mps 747 mmHg 51%
13:00 +27°C° 0 mm 3 mps 747 mmHg 49%
14:00 +27°C° 0 mm 3 mps 746 mmHg 48%
15:00 +27°C° 0 mm 3 mps 746 mmHg 50%
16:00 +27°C° 0 mm 3 mps 746 mmHg 53%
17:00 +26°C° 0 mm 3 mps 746 mmHg 56%
18:00 +25°C° 0 mm 3 mps 746 mmHg 60%
19:00 +23°C° 0 mm 2 mps 746 mmHg 65%
20:00 +21°C° 0 mm 2 mps 746 mmHg 70%
21:00 +20°C° 0 mm 2 mps 746 mmHg 72%
22:00 +19°C° 0 mm 2 mps 746 mmHg 74%
23:00 +18°C° 0 mm 3 mps 746 mmHg 77%
Show more